Cloud_Cover
1 1 0 0 2 2 5 52 61 83 71 88 22 14 56 68 39 44 68 45 33 37 100 36 38 94 100 98 43 60 68 22 11 2 4 0 0 0 0 0 0 0 0 0 0
0 0 0 0 0 0 18 0 1 11 26 35 34 5 5 4 5 20 45 85 90 97 100 100 100 100 100 100 100 87 10 16 14 8 2 1 2 0 0 0 0 0 0 0 0
0 0 0 0 0 0 18 100 10 0 3 86 43 5 2 1 4 0 0 2 43 95 55 91 57 98 100 100 100 100 100 97 74 7 5 5 1 0 0 0 0 0 0 0 0
0 0 0 0 0 0 0 60 100 2 0 77 31 97 37 10 5 0 2 0 3 5 4 5 4 2 0 15 59 59 21 1 5 5 5 5 4 0 0 0 0 0 0 0 0
0 0 0 0 0 0 5 15 100 100 3 16 66 91 99 85 41 100 80 2 0 2 98 5 5 5 5 4 0 0 0 3 0 5 5 6 5 0 0 0 0 0 0 0 0
0 0 0 0 0 0 2 98 100 100 96 0 19 100 100 26 1 5 31 100 54 5 6 98 29 23 28 5 5 5 5 4 4 0 2 0 0 0 0 0 0 0 0 0 0
0 0 0 0 0 0 0 28 100 99 100 0 17 100 41 0 0 0 4 5 62 100 85 16 94 60 14 70 7 5 70 83 5 3 0 0 0 0 0 0 0 0 0 0 0
0 0 0 0 0 0 0 0 95 87 100 0 88 98 2 0 0 0 0 0 6 95 88 100 99 100 91 31 20 93 41 69 9 5 5 0 4 5 0 0 0 0 0 0 0
0 0 5 0 0 0 0 5 2 87 44 28 38 3 0 0 0 0 0 2 0 4 15 84 100 100 100 93 90 77 46 88 23 5 6 5 5 5 0 0 0 0 0 0 0
2 0 0 0 0 0 0 0 0 73 78 96 90 46 0 0 0 2 5 5 5 5 5 5 10 99 100 100 95 82 20 5 5 5 5 5 5 4 0 2 1 0 0 0 61
6 3 0 0 0 0 0 0 0 0 0 0 0 0 0 0 0 4 14 5 6 15 5 5 5 99 97 62 92 53 10 52 32 5 4 4 7 5 0 0 0 0 0 82 6
33 84 11 1 0 1 3 20 0 0 0 0 0 0 0 0 4 4 4 6 5 13 5 5 5 29 98 100 100 66 5 5 7 5 4 2 5 4 0 4 3 4 1 3 0
25 14 100 53 5 4 28 100 39 76 14 0 0 0 0 3 3 5 5 28 46 71 15 5 4 5 5 33 98 100 74 5 5 5 5 2 0 0 1 0 0 1 1 0 2
4 51 78 17 68 18 0 30 100 100 41 0 3 31 2 7 10 2 5 29 83 52 5 10 7 3 5 5 5 5 8 5 5 5 5 0 4 0 0 3 0 0 0 0 0
8 2 12 54 11 76 4 58 100 98 5 0 2 0 5 7 9 0 26 74 73 7 5 3 3 5 5 5 5 5 5 5 5 5 5 3 9 0 0 2 0 0 0 0 2
4 5 20 15 56 100 96 46 99 77 34 2 3 2 5 98 48 5 5 13 5 5 5 4 5 5 5 5 9 65 58 5 5 5 65 5 5 2 0 4 0 1 5 5 5
16 8 66 10 11 92 98 100 100 76 0 4 2 0 11 22 44 17 16 5 5 5 6 3 4 4 5 5 10 73 71 85 94 75 51 5 5 0 2 4 5 5 5 5 41
5 22 32 8 82 100 100 100 100 5 0 65 98 32 92 79 57 19 5 5 5 5 6 2 27 5 5 6 23 86 48 64 100 57 5 60 4 75 52 5 5 5 33 93 100
11 14 92 58 60 100 100 98 98 95 5 29 100 100 100 92 37 6 44 51 5 5 17 89 42 8 56 10 20 10 5 8 28 7 25 66 51 100 6 53 70 48 97 97 99
84 86 81 67 100 100 100 100 90 100 97 100 33 14 94 98 39 5 22 26 36 68 87 53 80 5 5 5 14 90 28 48 73 100 96 100 100 23 71 38 14 74 81 96 90
89 100 98 98 100 100 100 100 85 100 100 100 100 68 15 6 82 23 6 24 99 100 84 17 47 40 5 5 7 14 7 86 99 96 100 100 68 46 58 16 97 100 99 100 10
95 99 100 100 100 100 90 84 42 87 100 100 100 100 100 67 94 95 79 97 100 90 48 37 57 48 60 5 5 5 72 100 100 100 100 97 84 81 99 100 100 100 100 10 65
100 100 100 100 100 90 98 100 96 100 100 100 100 100 100 100 80 100 98 100 100 63 32 8 58 55 72 18 43 93 86 95 100 100 100 83 95 100 100 100 100 100 8 26 82
100 99 99 100 100 100 93 100 100 100 100 100 100 100 100 100 99 96 100 100 100 100 68 50 57 10 55 68 54 50 100 96 100 100 90 88 100 100 100 100 100 25 5 80 89
100 99 100 100 100 100 100 100 100 100 100 100 100 100 100 100 100 100 100 100 100 100 100 99 89 41 5 5 18 70 97 100 100 85 96 100 100 100 100 100 71 5 63 84 88
100 100 100 100 100 100 99 100 100 100 100 100 100 100 100 100 100 96 96 95 55 80 100 98 94 92 82 5 64 99 97 100 100 100 100 100 100 100 100 100 39 6 89 100 100
20 100 100 100 100 100 92 71 100 100 100 100 100 100 100 100 86 70 98 73 83 94 100 95 95 91 93 71 95 94 100 100 100 94 100 100 100 100 100 100 6 26 98 100 100